Weather History for Lafayette, IN

Change the Weather History Date:

Wednesday, April 9, 2014

  Actual Average Record
Temperature  
Mean Temperature 45 °F 50 °F  
Max Temperature 60 °F 61 °F 82 °F (2001)
Min Temperature 30 °F 39 °F 19 °F (1997)
Degree Days  
Heating Degree Days 20 16  
Month to date heating degree days 178 153  
Since 1 July heating degree days 6128 5238  
Cooling Degree Days 0 0  
Month to date cooling degree days 0 0  
Year to date cooling degree days 0 1  
Moisture  
Dew Point 34 °F    
Average Humidity 66    
Maximum Humidity 100    
Minimum Humidity 32    
Precipitation  
Precipitation 0.00 in 0.11 in 1.35 in (1953)
Month to date precipitation 3.36 0.93  
Year to date precipitation 8.20 7.22  
Sea Level Pressure  
Sea Level Pressure 29.98 in    
Wind  
Wind Speed 5 mph (WSW)    
Max Wind Speed 16 mph    
Max Gust Speed 20 mph    
Visibility 4 miles    
Events Fog    
T = Trace of Precipitation, MM = Missing Value Source: NWS Daily Summary

Daily Weather History Graph

Daily Weather History Graph

Search for Another Location

Airport:

Trip Planner

Search our weather history database for the weather conditions in past years. The results will help you decide how hot, cold, wet, or windy it might be!

Date:

Astronomy

Apr. 09, 2014 Rise Set
Actual Time 7:18 AM EDT 8:20 PM EDT
Civil Twilight 6:50 AM EDT 8:48 PM EDT
Nautical Twilight 6:17 AM EDT 9:21 PM EDT
Astronomical Twilight 5:43 AM EDT 9:56 PM EDT
Moon 3:07 PM EDT (4/9) 4:08 AM EDT (4/9)
Length of Visible Light 13h 57m
Length of Day
13h 01m
Waxing Gibbous, 71% of the Moon is Illuminated
Apr 9
Waxing Gibbous
Apr 15
Full
Apr 22
Last Quarter
Apr 29
New
May 6
First Quarter

Hourly Weather History & Observations

Time (EDT) Temp. Windchill Dew Point Humidity Pressure Visibility Wind Dir Wind Speed Gust Speed Precip Events Conditions
12:54 AM 37.9 °F 34.4 °F 37.9 °F 100% 29.93 in 6.0 mi NNW 4.6 mph - N/A   Clear
1:54 AM 37.0 °F - 37.0 °F 100% 29.93 in 6.0 mi Calm Calm - N/A   Partly Cloudy
2:10 AM 37.0 °F - 36.0 °F 96% 29.93 in 1.8 mi Calm Calm - N/A   Clear
2:23 AM 37.0 °F - 36.0 °F 96% 29.93 in 3.0 mi Calm Calm - N/A   Clear
2:48 AM 35.6 °F - 35.6 °F 100% 29.93 in 1.8 mi Calm Calm - N/A   Clear
2:54 AM 35.1 °F - 35.1 °F 100% 29.94 in 1.5 mi Calm Calm - N/A   Clear
3:10 AM 35.1 °F - 35.1 °F 100% 29.93 in 0.2 mi Calm Calm - N/A Fog Fog
3:20 AM 33.1 °F - 33.1 °F 100% 29.94 in 1.0 mi Calm Calm - N/A   Mist
3:22 AM 33.1 °F - 32.0 °F 96% 29.94 in 2.5 mi Calm Calm - N/A   Partly Cloudy
3:29 AM 36.0 °F - 33.1 °F 89% 29.93 in 1.0 mi Calm Calm - N/A   Mist
3:36 AM 35.1 °F - 34.0 °F 96% 29.93 in 0.5 mi Calm Calm - N/A Fog Fog
3:42 AM 34.0 °F - 34.0 °F 100% 29.94 in 1.5 mi Calm Calm - N/A   Partly Cloudy
3:44 AM 34.0 °F - 34.0 °F 100% 29.94 in 3.0 mi Calm Calm - N/A   Partly Cloudy
3:54 AM 33.1 °F - 33.1 °F 100% 29.95 in 4.0 mi Calm Calm - N/A   Clear
4:37 AM 33.1 °F - 32.0 °F 96% 29.95 in 3.0 mi Calm Calm - N/A   Partly Cloudy
4:54 AM 33.1 °F - 32.0 °F 96% 29.96 in 2.0 mi Calm Calm - N/A   Partly Cloudy
4:58 AM 33.1 °F - 33.1 °F 100% 29.95 in 1.0 mi Calm Calm - N/A   Mist
5:05 AM 33.1 °F - 33.1 °F 100% 29.95 in 0.2 mi Calm Calm - N/A Fog Fog
5:41 AM 30.9 °F 27.5 °F 30.0 °F 96% 29.96 in 1.0 mi NW 3.5 mph - N/A   Mist
5:43 AM 30.0 °F 26.5 °F 30.0 °F 100% 29.96 in 2.0 mi WNW 3.5 mph - N/A   Partly Cloudy
5:54 AM 32.0 °F 28.7 °F 32.0 °F 100% 29.97 in 2.5 mi West 3.5 mph - N/A   Partly Cloudy
6:05 AM 32.0 °F 28.7 °F 30.9 °F 96% 29.97 in 1.0 mi West 3.5 mph - N/A   Mist
6:16 AM 32.0 °F 28.7 °F 30.9 °F 96% 29.97 in 0.5 mi WNW 3.5 mph - N/A Fog Fog
6:25 AM 30.0 °F 26.5 °F 30.0 °F 100% 29.98 in 0.2 mi West 3.5 mph - N/A Fog Light Freezing Fog
6:54 AM 30.0 °F - 30.0 °F 100% 29.99 in 0.2 mi Calm Calm - N/A Fog Light Freezing Fog
7:54 AM 30.9 °F - 30.9 °F 100% 30.02 in 0.2 mi Calm Calm - N/A Fog Light Freezing Fog
8:28 AM 32.0 °F - 32.0 °F 100% 30.03 in 0.5 mi Calm Calm - N/A Fog Fog
8:43 AM 34.0 °F - 34.0 °F 100% 30.03 in 0.2 mi Calm Calm - N/A Fog Fog
8:54 AM 35.1 °F 32.2 °F 35.1 °F 100% 30.04 in 0.5 mi WSW 3.5 mph - N/A Fog Fog
9:02 AM 36.0 °F - 36.0 °F 100% 30.03 in 3.0 mi Calm Calm - N/A   Overcast
9:11 AM 37.0 °F - 37.0 °F 100% 30.04 in 3.0 mi Calm Calm - N/A   Clear
9:54 AM 41.0 °F - 37.9 °F 89% 30.06 in 3.0 mi Calm Calm - N/A   Clear
10:54 AM 46.9 °F - 37.0 °F 68% 30.06 in 10.0 mi WSW 3.5 mph - N/A   Scattered Clouds
11:54 AM 51.1 °F - 36.0 °F 56% 30.06 in 10.0 mi Variable 3.5 mph - N/A   Mostly Cloudy
12:54 PM 55.0 °F - 36.0 °F 49% 30.05 in 10.0 mi WSW 10.4 mph - N/A   Partly Cloudy
1:54 PM 57.9 °F - 35.1 °F 42% 30.04 in 10.0 mi West 8.1 mph - N/A   Mostly Cloudy
2:54 PM 60.1 °F - 35.1 °F 39% 30.02 in 10.0 mi WSW 10.4 mph - N/A   Scattered Clouds
3:54 PM 57.9 °F - 35.1 °F 42% 30.01 in 10.0 mi West 8.1 mph - N/A   Mostly Cloudy
4:54 PM 59.0 °F - 33.1 °F 38% 30.00 in 10.0 mi West 12.7 mph - N/A   Scattered Clouds
5:54 PM 60.1 °F - 30.9 °F 33% 29.99 in 10.0 mi West 12.7 mph - N/A   Partly Cloudy
6:54 PM 57.9 °F - 30.9 °F 36% 29.99 in 10.0 mi WSW 8.1 mph - N/A   Clear
7:54 PM 57.0 °F - 32.0 °F 39% 29.98 in 10.0 mi SW 8.1 mph - N/A   Clear
8:54 PM 54.0 °F - 34.0 °F 47% 29.97 in 10.0 mi SSW 5.8 mph - N/A   Clear
9:54 PM 52.0 °F - 34.0 °F 50% 29.97 in 10.0 mi South 9.2 mph - N/A   Clear
10:54 PM 51.1 °F - 34.0 °F 52% 29.97 in 10.0 mi South 8.1 mph - N/A   Clear
11:54 PM 50.0 °F - 34.0 °F 54% 29.98 in 10.0 mi SSW 6.9 mph - N/A   Clear